EW5637 Weather Reports


Display with metric or nautical units.
time (UTC)temp
F
wind
direction
speed
MPH
gust
MPH
rain 1hr
in
rain 24hr
in
rain mn
in
humidity
%
barometer
mb
20260905212042 77 360 6.0 12.0 0.00 0.00 0.00 68 1011.4
20260905211606 78 83 6.0 12.0 0.00 0.00 0.00 67 1011.4
20260905211041 78 41 7.0 13.0 0.00 0.00 0.00 65 1011.3
20260905210546 77 28 7.0 13.0 0.00 0.00 0.00 66 1011.2
20260905210058 77 17 5.0 15.0 0.00 0.00 0.00 66 1011.3
20260905205544 76 350 7.0 15.0 0.00 0.00 0.00 66 1011.4
20260905205044 77 30 8.0 14.0 0.00 0.00 0.00 65 1011.4
20260905204600 77 26 4.0 9.0 0.00 0.00 0.00 70 1011.4
20260905204045 76 350 3.0 10.0 0.00 0.00 0.00 70 1011.4
20260905203543 76 331 5.0 11.0 0.00 0.00 0.00 70 1011.4
20260905203100 76 350 7.0 11.0 0.00 0.00 0.00 68 1011.4
20260905202542 77 350 7.0 13.0 0.00 0.00 0.00 68 1011.4
20260905202042 77 323 6.0 13.0 0.00 0.00 0.00 67 1011.3
20260905201554 78 316 4.0 8.0 0.00 0.00 0.00 69 1011.4
20260905201044 78 319 4.0 8.0 0.00 0.00 0.00 69 1011.3
20260905200542 78 300 3.0 8.0 0.00 0.00 0.00 68 1011.4
20260905200100 78 24 3.0 13.0 0.00 0.00 0.00 68 1011.4
20260905195541 78 350 6.0 13.0 0.00 0.00 0.00 69 1011.6
20260905195040 77 319 5.0 10.0 0.00 0.00 0.00 72 1011.7
20260905194601 76 297 4.0 14.0 0.00 0.00 0.00 74 1011.6
20260905194043 75 321 7.0 16.0 0.00 0.00 0.00 72 1011.6
20260905193540 76 321 10.0 16.0 0.00 0.00 0.00 70 1011.7
20260905193107 76 298 10.0 16.0 0.00 0.00 0.00 68 1011.8
20260905192541 77 338 7.0 10.0 0.00 0.00 0.00 70 1011.7
20260905192040 77 34 3.0 8.0 0.00 0.00 0.00 71 1011.8
20260905191558 77 9 1.0 8.0 0.00 0.00 0.00 72 1011.9
20260905191040 76 318 5.0 8.0 0.00 0.00 0.00 71 1011.9
20260905190542 76 279 3.0 14.0 0.00 0.00 0.00 69 1011.9
20260905190052 76 295 6.0 14.0 0.00 0.00 0.00 71 1012.0
20260905185540 77 310 8.0 14.0 0.00 0.00 0.00 70 1012.0
20260905185041 77 318 4.0 10.0 0.00 0.00 0.00 72 1012.1
20260905184611 77 294 4.0 9.0 0.00 0.00 0.00 71 1012.1
20260905184042 76 13 4.0 9.0 0.00 0.00 0.00 71 1012.2
20260905183539 75 360 5.0 9.0 0.00 0.00 0.00 72 1012.2
20260905183058 76 330 4.0 9.0 0.00 0.00 0.00 75 1012.3
20260905182540 76 9 6.0 9.0 0.00 0.00 0.00 72 1012.3
20260905182042 76 17 4.0 8.0 0.00 0.00 0.00 72 1012.3
20260905181559 76 26 1.0 8.0 0.00 0.00 0.00 72 1012.4
20260905181042 76 9 3.0 9.0 0.00 0.00 0.00 72 1012.4
20260905180543 76 320 4.0 9.0 0.00 0.00 0.00 72 1012.4
20260905180059 76 347 4.0 11.0 0.00 0.00 0.00 71 1012.4
20260905175542 76 16 5.0 11.0 0.00 0.00 0.00 73 1012.2
20260905175041 77 20 7.0 12.0 0.00 0.00 0.00 71 1012.3
20260905174556 77 342 7.0 12.0 0.00 0.00 0.00 72 1012.3
20260905174040 77 349 4.0 10.0 0.00 0.00 0.00 75 1012.3
20260905173542 76 29 5.0 10.0 0.00 0.00 0.00 71 1012.5
20260905173056 76 322 5.0 10.0 0.00 0.00 0.00 74 1012.7
20260905172541 76 22 5.0 13.0 0.00 0.00 0.00 73 1012.8
20260905172040 76 340 5.0 13.0 0.00 0.00 0.00 72 1012.8
20260905171555 76 5 6.0 13.0 0.00 0.00 0.00 71 1012.9
20260905171041 76 346 6.0 11.0 0.00 0.00 0.00 72 1013.0
20260905170544 76 12 5.0 11.0 0.00 0.00 0.00 70 1012.9
20260905170105 77 321 2.0 10.0 0.00 0.00 0.00 69 1013.1
20260905165544 77 314 7.0 10.0 0.00 0.00 0.00 68 1013.1
20260905165040 77 338 2.0 7.0 0.00 0.00 0.00 72 1013.1
20260905164555 76 100 4.0 7.0 0.00 0.00 0.00 72 1013.3
20260905164041 76 59 3.0 7.0 0.00 0.00 0.00 77 1013.3
20260905163540 76 34 0.0 5.0 0.00 0.00 0.00 73 1013.3
20260905163053 75 0 1.0 10.0 0.00 0.00 0.00 74 1013.3
20260905162543 75 0 4.0 10.0 0.00 0.00 0.00 72 1013.3
20260905162041 75 88 2.0 7.0 0.00 0.00 0.00 74 1013.3
20260905161604 75 0 0.0 6.0 0.00 0.00 0.00 73 1013.4
20260905161040 75 350 1.0 4.0 0.00 0.00 0.00 74 1013.5
20260905160541 74 239 0.0 4.0 0.00 0.00 0.00 74 1013.7
20260905160104 74 5 2.0 4.0 0.00 0.00 0.00 76 1013.7
20260905155544 74 320 0.0 4.0 0.00 0.00 0.00 76 1013.9
20260905155042 73 0 0.0 4.0 0.00 0.00 0.00 74 1013.9
20260905154600 74 320 1.0 4.0 0.00 0.00 0.00 75 1014.0
20260905154041 74 33 0.0 4.0 0.00 0.00 0.00 75 1013.9
20260905153546 73 0 0.0 2.0 0.00 0.00 0.00 75 1013.9
20260905153104 73 0 0.0 0.0 0.00 0.00 0.00 76 1014.0
20260905152540 73 0 0.0 0.0 0.00 0.00 0.00 76 1013.9
20260905152040 72 0 0.0 0.0 0.00 0.00 0.00 78 1014.1
20260905151601 72 0 0.0 0.0 0.00 0.00 0.00 78 1014.0
20260905151040 72 0 0.0 0.0 0.00 0.00 0.00 78 1014.0
20260905150541 72 0 0.0 0.0 0.00 0.00 0.00 78 1014.1
20260905150104 72 0 0.0 0.0 0.00 0.00 0.00 77 1014.1
20260905145542 72 0 0.0 0.0 0.00 0.00 0.00 80 1014.1
20260905145040 72 0 0.0 2.0 0.00 0.00 0.00 79 1014.0
20260905144555 72 0 0.0 3.0 0.00 0.00 0.00 80 1014.0
20260905144044 72 0 1.0 3.0 0.00 0.00 0.00 79 1014.0
20260905143541 72 46 0.0 3.0 0.00 0.00 0.00 80 1013.9
20260905143058 72 48 1.0 3.0 0.00 0.00 0.00 79 1013.8
20260905142541 72 36 1.0 4.0 0.00 0.00 0.00 78 1013.9
20260905142041 72 38 2.0 5.0 0.00 0.00 0.00 79 1013.8
20260905141554 72 350 2.0 5.0 0.00 0.00 0.00 79 1013.7
20260905141043 72 28 2.0 6.0 0.00 0.00 0.00 79 1013.6
20260905140540 71 5 2.0 6.0 0.00 0.00 0.00 80 1013.6
20260905140104 71 350 3.0 6.0 0.00 0.00 0.00 78 1013.6
20260905135541 71 348 3.0 6.0 0.00 0.00 0.00 79 1013.6
20260905135043 71 345 3.0 6.0 0.00 0.00 0.00 81 1013.5
20260905134556 71 0 2.0 7.0 0.00 0.00 0.00 80 1013.4
20260905134042 71 15 3.0 10.0 0.00 0.00 0.00 80 1013.3
20260905133541 71 15 3.0 10.0 0.00 0.00 0.00 80 1013.3
20260905133055 71 44 5.0 10.0 0.00 0.00 0.00 80 1013.4
20260905132546 72 26 4.0 9.0 0.00 0.00 0.00 80 1013.3
20260905132045 72 39 3.0 6.0 0.00 0.00 0.00 79 1013.3
20260905131558 72 15 2.0 6.0 0.00 0.00 0.00 80 1013.4
20260905131040 72 24 2.0 5.0 0.00 0.00 0.00 81 1013.3
20260905130542 72 50 3.0 8.0 0.00 0.00 0.00 80 1013.3
20260905130051 72 53 3.0 8.0 0.00 0.00 0.00 80 1013.3
20260905125540 72 33 3.0 8.0 0.00 0.00 0.00 80 1013.3
20260905125041 72 40 4.0 9.0 0.00 0.00 0.00 80 1013.3
20260905124601 72 360 4.0 9.0 0.00 0.00 0.00 80 1013.1
20260905124040 72 5 2.0 5.0 0.00 0.00 0.00 82 1013.0
20260905123540 71 346 0.0 6.0 0.00 0.00 0.00 83 1012.9
20260905123058 71 342 1.0 6.0 0.00 0.00 0.00 83 1012.9
20260905122541 71 331 2.0 6.0 0.00 0.00 0.00 84 1012.9
20260905122039 71 344 2.0 6.0 0.00 0.00 0.00 84 1012.8
20260905121556 71 350 2.0 6.0 0.00 0.00 0.00 86 1012.8
20260905121041 70 360 2.0 4.0 0.00 0.00 0.00 88 1012.9
20260905120540 70 351 2.0 4.0 0.00 0.00 0.00 88 1013.0
20260905115537 69 350 0.0 2.0 0.00 0.00 0.00 90 1013.0
20260905115038 69 350 0.0 2.0 0.00 0.00 0.00 91 1013.1
20260905114601 69 350 1.0 3.0 0.00 0.00 0.00 92 1013.0
20260905114040 69 0 1.0 3.0 0.00 0.00 0.00 92 1012.9
20260905113538 69 350 0.0 3.0 0.00 0.00 0.00 92 1012.8
20260905113100 69 0 0.0 3.0 0.00 0.00 0.00 93 1012.9
20260905112538 69 0 0.0 3.0 0.00 0.00 0.00 93 1012.9
20260905112037 68 349 1.0 4.0 0.00 0.00 0.00 93 1013.0
20260905111644 68 350 2.0 4.0 0.00 0.00 0.00 93 1012.9
20260905111040 68 351 3.0 5.0 0.00 0.00 0.00 94 1012.8
20260905110537 68 345 3.0 6.0 0.00 0.00 0.00 94 1012.8
20260905110051 67 350 3.0 6.0 0.00 0.00 0.00 94 1012.8
20260905105540 67 347 3.0 5.0 0.00 0.00 0.00 95 1012.7
20260905105040 67 5 3.0 5.0 0.00 0.00 0.00 95 1012.5
20260905104548 67 330 1.0 4.0 0.00 0.00 0.00 95 1012.3
20260905104038 67 316 1.0 3.0 0.00 0.00 0.00 95 1012.3
20260905103538 67 0 1.0 3.0 0.00 0.00 0.00 95 1012.0
20260905103055 67 0 0.0 2.0 0.00 0.00 0.00 95 1012.0
20260905102538 67 316 1.0 3.0 0.00 0.00 0.00 95 1012.1
20260905102037 66 0 0.0 4.0 0.00 0.00 0.00 95 1011.9
20260905101600 66 0 1.0 5.0 0.00 0.00 0.00 95 1012.0
20260905101041 66 316 3.0 5.0 0.00 0.00 0.00 95 1012.1
20260905100541 65 314 3.0 4.0 0.00 0.00 0.00 94 1011.9
20260905100107 65 312 0.0 2.0 0.00 0.00 0.00 94 1011.7
20260905095540 66 0 0.0 3.0 0.00 0.00 0.00 94 1011.5
20260905095040 66 0 1.0 3.0 0.00 0.00 0.00 94 1011.5
20260905094552 65 312 1.0 3.0 0.00 0.00 0.00 93 1011.4
20260905094040 65 0 0.0 4.0 0.00 0.00 0.00 93 1011.6
20260905093545 66 0 0.0 4.0 0.00 0.00 0.00 93 1011.6
20260905093059 66 312 2.0 4.0 0.00 0.00 0.00 93 1011.6
20260905092538 66 311 1.0 3.0 0.00 0.00 0.00 94 1011.7
20260905092038 66 311 1.0 4.0 0.00 0.00 0.00 93 1011.6
20260905091604 66 311 2.0 4.0 0.00 0.00 0.00 93 1011.6
20260905091037 66 311 2.0 4.0 0.00 0.00 0.00 93 1011.5
20260905090539 66 311 1.0 3.0 0.00 0.00 0.00 93 1011.6
20260905090054 66 311 1.0 3.0 0.00 0.00 0.00 92 1011.5
20260905085541 66 0 0.0 3.0 0.00 0.00 0.00 93 1011.5
20260905085043 66 0 0.0 3.0 0.00 0.00 0.00 93 1011.4
20260905084553 66 0 0.0 3.0 0.00 0.00 0.00 93 1011.3
20260905084038 66 0 0.0 2.0 0.00 0.00 0.00 93 1011.3
20260905083542 66 0 0.0 2.0 0.00 0.00 0.00 93 1011.4
20260905083053 67 309 0.0 2.0 0.00 0.00 0.00 92 1011.4
20260905082540 67 0 0.0 2.0 0.00 0.00 0.00 92 1011.2
20260905082037 67 0 1.0 4.0 0.00 0.00 0.00 92 1011.2
20260905081606 67 309 2.0 4.0 0.00 0.00 0.00 92 1011.4
20260905081038 67 309 1.0 4.0 0.00 0.00 0.00 92 1011.4
20260905080538 67 307 0.0 2.0 0.00 0.00 0.00 91 1011.4
20260905075542 68 0 0.0 3.0 0.00 0.00 0.00 91 1011.5
20260905075037 68 0 0.0 3.0 0.00 0.00 0.00 91 1011.6
20260905074553 68 307 0.0 3.0 0.00 0.00 0.00 90 1011.6
20260905074042 69 0 0.0 3.0 0.00 0.00 0.00 90 1011.5
20260905073541 69 0 1.0 3.0 0.00 0.00 0.00 90 1011.7
20260905073053 69 309 0.0 3.0 0.00 0.00 0.00 89 1011.6
20260905072540 70 0 0.0 3.0 0.00 0.00 0.00 88 1011.6
20260905072041 71 0 0.0 3.0 0.00 0.00 0.00 87 1011.6
20260905071555 71 0 0.0 3.0 0.00 0.00 0.00 86 1011.7
20260905071039 72 0 0.0 4.0 0.00 0.00 0.00 86 1011.7
20260905070541 72 0 0.0 7.0 0.00 0.00 0.00 86 1011.8
20260905070101 72 272 2.0 7.0 0.00 0.00 0.00 86 1011.9
20260905065540 72 274 3.0 7.0 0.00 0.00 0.00 86 1011.9
20260905065040 72 273 2.0 4.0 0.00 0.00 0.00 86 1011.8
20260905064553 72 263 1.0 6.0 0.00 0.00 0.00 86 1012.0
20260905064040 72 263 1.0 6.0 0.00 0.00 0.00 86 1012.1
20260905063537 72 0 1.0 7.0 0.00 0.00 0.00 86 1012.2
20260905063100 72 274 3.0 7.0 0.00 0.00 0.00 86 1012.4
20260905062541 72 279 2.0 3.0 0.00 0.00 0.00 86 1012.4
20260905062037 72 279 2.0 4.0 0.00 0.00 0.00 86 1012.4
20260905061608 73 277 2.0 4.0 0.00 0.00 0.00 85 1012.3
20260905061040 73 267 1.0 6.0 0.00 0.00 0.00 84 1012.4
20260905060541 73 267 2.0 7.0 0.00 0.00 0.00 84 1012.5
20260905060057 74 263 4.0 7.0 0.00 0.00 0.00 84 1012.4
20260905055537 74 274 2.0 6.0 0.00 0.00 0.00 83 1012.6
20260905055041 74 275 1.0 7.0 0.00 0.00 0.00 83 1012.5
20260905054555 74 271 3.0 7.0 0.00 0.00 0.00 83 1012.6
20260905054042 74 281 3.0 8.0 0.00 0.00 0.00 82 1012.6
20260905053541 75 257 3.0 8.0 0.00 0.00 0.00 82 1012.6
20260905053058 75 246 2.0 8.0 0.00 0.00 0.00 82 1012.7
20260905052543 75 259 3.0 8.0 0.00 0.00 0.00 82 1012.8
20260905052037 75 261 4.0 9.0 0.00 0.00 0.00 82 1012.9
20260905051550 75 281 3.0 10.0 0.00 0.00 0.00 82 1012.8
20260905051037 75 259 4.0 10.0 0.00 0.00 0.00 82 1012.8
20260905050537 75 234 6.0 10.0 0.00 0.00 0.00 82 1013.0
20260905050104 75 264 5.0 9.0 0.00 0.00 0.00 82 1013.0
20260905045536 75 269 5.0 11.0 0.00 0.00 0.00 82 1013.0
20260905045041 75 288 6.0 11.0 0.00 0.00 0.00 82 1013.0
20260905044603 75 280 4.0 9.0 0.00 0.00 0.00 83 1012.9
20260905044040 75 302 4.0 10.0 0.00 0.00 0.00 83 1012.8
20260905043541 75 288 4.0 10.0 0.00 0.00 0.00 83 1012.9
20260905043054 75 282 7.0 10.0 0.00 0.00 0.00 83 1012.8
20260905042540 75 279 6.0 11.0 0.00 0.00 0.00 83 1012.8
20260905042037 74 281 7.0 13.0 0.00 0.00 0.00 84 1012.8
20260905041553 74 274 6.0 13.0 0.00 0.00 0.00 86 1012.9
20260905041037 73 284 5.0 8.0 0.00 0.00 0.00 88 1013.0
20260905040540 72 318 2.0 4.0 0.00 0.00 0.00 88 1012.9
20260905040059 72 323 2.0 4.0 0.00 0.00 0.00 88 1013.0
20260905035538 73 325 1.0 5.0 0.00 0.01 0.00 87 1013.0
20260905035037 73 326 1.0 8.0 0.00 0.01 0.00 86 1013.0
20260905034554 74 328 4.0 8.0 0.00 0.01 0.00 85 1013.1
20260905034037 75 311 1.0 7.0 0.00 0.01 0.00 83 1013.0
20260905033537 75 296 1.0 7.0 0.00 0.01 0.00 83 1013.1
20260905033100 75 275 3.0 7.0 0.00 0.01 0.00 83 1013.0
20260905032542 76 295 2.0 7.0 0.00 0.01 0.00 83 1013.0
20260905032040 76 284 3.0 7.0 0.00 0.01 0.00 83 1013.0
20260905031550 75 289 2.0 6.0 0.00 0.01 0.00 83 1012.9
20260905031040 76 236 1.0 7.0 0.00 0.01 0.00 82 1012.9
20260905030540 76 251 2.0 8.0 0.00 0.01 0.00 82 1012.9
20260905030115 76 244 4.0 8.0 0.00 0.01 0.00 82 1012.7
20260905025540 76 259 3.0 8.0 0.00 0.02 0.00 82 1012.7
20260905025041 76 271 5.0 10.0 0.00 0.02 0.00 82 1012.6
20260905024552 76 294 3.0 10.0 0.00 0.02 0.00 82 1012.7
20260905024040 76 281 5.0 8.0 0.00 0.02 0.00 82 1012.5
20260905023540 76 297 3.0 8.0 0.00 0.02 0.00 82 1012.5
20260905023050 76 283 5.0 11.0 0.00 0.02 0.00 82 1012.6
20260905022540 76 298 5.0 11.0 0.00 0.02 0.00 82 1012.5
20260905022041 76 279 7.0 11.0 0.00 0.02 0.00 82 1012.6
20260905021556 76 284 8.0 10.0 0.00 0.02 0.00 81 1012.5
20260905021041 76 290 5.0 10.0 0.00 0.02 0.00 81 1012.5
20260905020538 76 257 5.0 10.0 0.00 0.02 0.00 81 1012.4
20260905015541 75 286 6.0 9.0 0.00 0.02 0.00 83 1012.3
20260905015042 74 281 5.0 10.0 0.00 0.02 0.00 84 1012.3
20260905014556 74 296 7.0 10.0 0.00 0.02 0.00 84 1012.4
20260905014042 74 304 5.0 8.0 0.00 0.02 0.00 84 1012.4
20260905013536 74 301 3.0 5.0 0.00 0.02 0.00 84 1012.4
20260905013052 74 314 3.0 8.0 0.00 0.02 0.00 83 1012.4
20260905012542 75 316 2.0 8.0 0.00 0.02 0.00 82 1012.4
20260905012041 76 315 5.0 11.0 0.00 0.02 0.00 81 1012.4
20260905011556 76 292 5.0 11.0 0.00 0.02 0.00 80 1012.5
20260905011040 76 295 6.0 10.0 0.00 0.02 0.00 80 1012.5
20260905010541 76 291 7.0 9.0 0.00 0.02 0.00 81 1012.5
20260905010113 76 292 5.0 9.0 0.00 0.02 0.00 81 1012.4
20260905005541 76 300 6.0 8.0 0.00 0.02 0.00 81 1012.5
20260905005038 76 296 4.0 9.0 0.00 0.02 0.00 81 1012.5
20260905004612 76 290 4.0 9.0 0.00 0.02 0.00 81 1012.4
20260905004041 76 298 4.0 9.0 0.00 0.02 0.00 81 1012.3
20260905003541 76 295 4.0 8.0 0.00 0.02 0.00 81 1012.5
20260905003056 76 288 5.0 8.0 0.00 0.02 0.00 81 1012.4
20260905002540 76 288 3.0 6.0 0.00 0.02 0.00 81 1012.4
20260905002040 76 287 2.0 5.0 0.00 0.02 0.00 81 1012.4
20260905001601 76 281 2.0 4.0 0.00 0.02 0.00 81 1012.3
20260905001044 76 288 2.0 6.0 0.00 0.02 0.00 80 1012.2
20260905000541 77 288 2.0 6.0 0.00 0.02 0.00 79 1012.2
20260905000059 77 282 2.0 5.0 0.00 0.02 0.00 79 1012.2
20260904235537 77 281 3.0 6.0 0.00 0.02 0.00 79 1012.3
20260904235040 77 281 3.0 6.0 0.00 0.02 0.00 79 1012.3
20260904234556 77 283 2.0 6.0 0.00 0.02 0.00 80 1012.3
20260904234043 77 274 0.0 3.0 0.00 0.02 0.00 80 1012.3
20260904233538 78 0 0.0 0.0 0.00 0.02 0.00 81 1012.3
20260904233058 78 0 0.0 0.0 0.00 0.02 0.00 81 1012.2
20260904232541 79 0 0.0 0.0 0.00 0.02 0.00 81 1012.2
20260904232038 79 0 0.0 0.0 0.00 0.02 0.00 79 1012.3
20260904231552 80 0 0.0 0.0 0.00 0.02 0.00 76 1012.2
20260904231037 80 0 0.0 3.0 0.00 0.02 0.00 75 1012.3
20260904230542 80 0 0.0 3.0 0.00 0.02 0.00 75 1012.4
20260904225540 81 0 0.0 6.0 0.00 0.02 0.00 73 1012.4
20260904225036 81 254 2.0 6.0 0.00 0.02 0.00 71 1012.7
20260904224555 82 288 3.0 7.0 0.00 0.02 0.00 70 1012.6
20260904224041 82 253 2.0 7.0 0.00 0.02 0.00 70 1012.5
20260904223539 82 0 0.0 4.0 0.00 0.02 0.00 73 1012.5
20260904223056 83 246 0.0 3.0 0.00 0.02 0.00 73 1012.4
20260904222540 83 247 1.0 4.0 0.00 0.02 0.00 72 1012.5
20260904222043 83 0 1.0 4.0 0.00 0.02 0.00 73 1012.5
20260904221558 83 243 1.0 5.0 0.00 0.02 0.00 73 1012.4
20260904221040 83 284 0.0 5.0 0.00 0.02 0.00 72 1012.3
20260904220540 83 0 2.0 7.0 0.00 0.02 0.00 72 1012.6
20260904220107 83 258 2.0 7.0 0.00 0.02 0.00 71 1012.6
20260904215540 84 264 1.0 4.0 0.00 0.02 0.00 70 1012.5
20260904215037 84 0 0.0 3.0 0.00 0.02 0.00 72 1012.4
20260904214624 84 261 0.0 6.0 0.00 0.02 0.00 72 1012.8
20260904214043 84 261 0.0 8.0 0.00 0.02 0.00 69 1012.7
20260904213538 84 0 3.0 8.0 0.00 0.02 0.00 69 1012.8
20260904213056 85 254 2.0 5.0 0.00 0.02 0.00 68 1012.8
20260904212544 85 236 2.0 5.0 0.00 0.02 0.00 69 1012.8